Regional Weather Roundup
Issued by NWS

Home | Current Version | Previous Version | Text Only | Print | Product List | Glossary Off
Versions: 1 2 3 4 5 6 7 8 9 10 11 12 13 14 15 16 17 18 19 20 21 22 23 24 25 26 27 28 29 30 31 32 33 34 35 36 37 38 39 40 41 42 43 44 45 46 47 48 49 50

620
ASUS43 KLSX 200007
RWRMO

WEATHER SUMMARY FOR MISSOURI
NATIONAL WEATHER SERVICE SPRINGFIELD MO
600 PM CST THU JAN 19 2017

NOTE: "FAIR" INDICATES FEW OR NO CLOUDS BELOW 12,000 FEET WITH NO
       SIGNIFICANT WEATHER AND/OR OBSTRUCTIONS TO VISIBILITY.
       CURRENT SKY AND/OR WEATHER CONDITIONS ARE NOT AVAILABLE FOR
       CHILLICOTHE AND FARMINGTON.

MOZ001>031-035>038-043-044-053-054-200100-
...NORTHERN AND WESTERN MISSOURI...

CITY           SKY/WX    TMP DP  RH WIND       PRES   REMARKS
KANSAS CTY INT CLOUDY    47  43  86 S5        29.64F
6HR MIN TEMP:  47; 6HR MAX TEMP:  48;

KANSAS C DTWN  CLOUDY    49  45  86 CALM      29.65S
6HR MIN TEMP:  48; 6HR MAX TEMP:  50;

LEE`S SUMMIT   CLOUDY    48  47  96 E3        29.65F
6HR MIN TEMP:  46; 6HR MAX TEMP:  49;

ST JOSEPH      CLOUDY    47  45  93 SE3       29.65F
6HR MIN TEMP:  46; 6HR MAX TEMP:  48;

CHILLICOTHE      N/A     46  45  96 CALM      29.68F
6HR MIN TEMP:  45; 6HR MAX TEMP:  46;

KIRKSVILLE     FOG       43  42  97 NE5       29.68F VSB 1/4
6HR MIN TEMP:  41; 6HR MAX TEMP:  44; 6HR PCP: TRACE;


$$
MOZ066>068-077>081-088>096-101>105-200100-
...SOUTHWEST MISSOURI...

CITY           SKY/WX    TMP DP  RH WIND       PRES   REMARKS
SPRINGFIELD    CLOUDY    52  49  89 E3        29.63F
6HR MIN TEMP:  49; 6HR MAX TEMP:  53;

JOPLIN         CLEAR     49  47  93 CALM      29.62F
6HR MIN TEMP:  49; 6HR MAX TEMP:  55;

BRANSON        PTCLDY    48  48 100 SE6       29.65S

$$
MOZ032>034-039>042-045>050-055>058-069>072-200100-
...CENTRAL MISSOURI...

CITY           SKY/WX    TMP DP  RH WIND       PRES   REMARKS
COLUMBIA       FOG       47  47 100 E3        29.67S VSB<1/4
6HR MIN TEMP:  46; 6HR MAX TEMP:  48; 6HR PCP: TRACE;

JEFFERSON CITY CLOUDY    49  48  97 CALM      29.67F FOG
6HR MIN TEMP:  47; 6HR MAX TEMP:  49;

ROLLA          FOG       49  49 100 E5        29.65F VSB 1
6HR MIN TEMP:  47; 6HR MAX TEMP:  51;

SEDALIA        CLOUDY    50  47  89 SE5       29.66F
6HR MIN TEMP:  50; 6HR MAX TEMP:  52;

WHITEMAN AFB   CLOUDY    49  49 100 CALM      29.64F
WARRENSBURG    CLOUDY    46  46 100 CALM      29.65S
OSAGE BEACH    CLOUDY    49  48  97 CALM      29.67  FOG

$$
MOZ051-052-059>065-200100-
...EAST CENTRAL MISSOURI...

CITY           SKY/WX    TMP DP  RH WIND       PRES   REMARKS
ST LOUIS INTL  DRZL/FOG  48  46  93 SE7       29.71S VSB 1/2
6HR MIN TEMP:  46; 6HR MAX TEMP:  48; 6HR PCP:  0.06;

SPIRIT OF STL  FOG       47  47 100 CALM      29.70F VSB 3/4
6HR MIN TEMP:  46; 6HR MAX TEMP:  48; 6HR PCP:  0.01;

ST CHARLES     FOG       45  45 100 NE5       29.71S VSB 1/2
6HR MIN TEMP:  45; 6HR MAX TEMP:  46; 6HR PCP:  0.01;


$$
MOZ072>076-082>087-097>100-106>115-200100-
...SOUTH CENTRAL AND SOUTHEAST MISSOURI...

CITY           SKY/WX    TMP DP  RH WIND       PRES   REMARKS
CAPE GIRARDEAU FOG       51  50  96 CALM      29.69F VSB 1
6HR MIN TEMP:  50; 6HR MAX TEMP:  52;

FARMINGTON     FOG       49  49 100 E3        29.68F VSB 1/4
6HR MIN TEMP:  47; 6HR MAX TEMP:  49; 6HR PCP:  0.01;

POPLAR BLUFF   FOG       49  49 100 CALM      29.68F VSB 3/4
6HR MIN TEMP:  48; 6HR MAX TEMP:  50; 6HR PCP: TRACE;

WEST PLAINS    FOG       50  49  96 SE3       29.67S VSB 1/4
6HR MIN TEMP:  47; 6HR MAX TEMP:  50;


$$



USA.gov is the U.S. government's official web portal to all federal, state and local government web resources and services.